Weather History for Little Falls, MN

Change the Weather History Date:

Wednesday, November 20, 2013

  Actual Average Record
Temperature  
Mean Temperature 37 °F -  
Max Temperature 46 °F 35 °F 63 °F (1939)
Min Temperature 28 °F 19 °F -4 °F (2014)
Degree Days  
Heating Degree Days 28    
Moisture  
Dew Point 29 °F    
Average Humidity 67    
Maximum Humidity 93    
Minimum Humidity 53    
Precipitation  
Precipitation 0.00 in - - ()
Sea Level Pressure  
Sea Level Pressure 29.87 in    
Wind  
Wind Speed 11 mph (SSE)    
Max Wind Speed 17 mph    
Max Gust Speed 28 mph    
Visibility 10 miles    
Events      
Averages and records for this station are not official NWS values.
T = Trace of Precipitation, MM = Missing Value Source: NWS Daily Summary

Daily Weather History Graph

Daily Weather History Graph

Search for Another Location

Airport:

Trip Planner

Search our weather history database for the weather conditions in past years. The results will help you decide how hot, cold, wet, or windy it might be!

Date:

Astronomy

Nov. 20, 2013 Rise Set
Actual Time 7:24 AM CST 4:40 PM CST
Civil Twilight 6:52 AM CST 5:13 PM CST
Nautical Twilight 6:15 AM CST 5:50 PM CST
Astronomical Twilight 5:39 AM CST 6:25 PM CST
Moon 7:24 PM CST (11/20) 9:51 AM CST (11/20)
Length of Visible Light 10h 21m
Length of Day
9h 15m
Waning Gibbous, 91% of the Moon is Illuminated
Nov 20
Waning Gibbous
Nov 25
Last Quarter
Dec 2
New
Dec 9
First Quarter
Dec 17
Full

Hourly Weather History & Observations

Time (CST) Temp. Windchill Dew Point Humidity Pressure Visibility Wind Dir Wind Speed Gust Speed Precip Events Conditions
12:15 AM 42.8 °F 35.4 °F 30.2 °F 61% 29.79 in 10.0 mi SSE 15.0 mph 24.2 mph N/A   Clear
12:35 AM 42.8 °F 35.8 °F 30.2 °F 61% 29.79 in 10.0 mi SSE 13.8 mph 24.2 mph N/A   Clear
12:54 AM 42.8 °F 35.8 °F 30.2 °F 61% 29.79 in 10.0 mi SSE 13.8 mph 21.9 mph N/A   Clear
1:15 AM 42.8 °F 35.1 °F 28.4 °F 57% 29.79 in 10.0 mi South 16.1 mph 24.2 mph N/A   Clear
1:35 AM 44.6 °F 38.1 °F 28.4 °F 53% 29.79 in 10.0 mi SSE 13.8 mph 25.3 mph N/A   Clear
1:54 AM 44.6 °F 37.8 °F 28.4 °F 53% 29.79 in 10.0 mi South 15.0 mph 27.6 mph N/A   Clear
2:15 AM 44.6 °F 37.8 °F 28.4 °F 53% 29.79 in 10.0 mi SSE 15.0 mph 24.2 mph N/A   Clear
2:35 AM 44.6 °F 38.1 °F 28.4 °F 53% 29.80 in 10.0 mi SSE 13.8 mph 25.3 mph N/A   Clear
2:54 AM 42.8 °F 35.8 °F 28.4 °F 57% 29.80 in 10.0 mi SSE 13.8 mph 19.6 mph N/A   Clear
3:15 AM 42.8 °F 35.4 °F 28.4 °F 57% 29.80 in 10.0 mi SSE 15.0 mph 19.6 mph N/A   Clear
3:35 AM 42.8 °F 36.2 °F 28.4 °F 57% 29.80 in 10.0 mi SSE 12.7 mph 17.3 mph N/A   Clear
3:55 AM 42.8 °F 34.8 °F 28.4 °F 57% 29.80 in 10.0 mi SSE 17.3 mph 23.0 mph N/A   Clear
4:14 AM 42.8 °F 35.8 °F 28.4 °F 57% 29.80 in 10.0 mi SSE 13.8 mph 19.6 mph N/A   Clear
4:35 AM 41.0 °F 34.3 °F 28.4 °F 61% 29.80 in 10.0 mi SSE 11.5 mph 18.4 mph N/A   Clear
4:54 AM 41.0 °F 34.7 °F 28.4 °F 61% 29.81 in 10.0 mi SSE 10.4 mph 16.1 mph N/A   Clear
5:15 AM 41.0 °F 33.9 °F 28.4 °F 61% 29.81 in 10.0 mi SSE 12.7 mph - N/A   Clear
5:34 AM 41.0 °F 34.7 °F 28.4 °F 61% 29.81 in 10.0 mi SSE 10.4 mph 16.1 mph N/A   Clear
5:55 AM 41.0 °F 34.3 °F 28.4 °F 61% 29.81 in 10.0 mi SSE 11.5 mph - N/A   Clear
6:15 AM 41.0 °F 35.2 °F 28.4 °F 61% 29.81 in 10.0 mi SSE 9.2 mph 17.3 mph N/A   Clear
6:34 AM 41.0 °F 34.7 °F 28.4 °F 61% 29.82 in 10.0 mi SSE 10.4 mph 17.3 mph N/A   Clear
6:55 AM 41.0 °F 35.8 °F 28.4 °F 61% 29.82 in 10.0 mi South 8.1 mph - N/A   Clear
7:15 AM 41.0 °F 36.4 °F 28.4 °F 61% 29.82 in 10.0 mi SSE 6.9 mph - N/A   Clear
7:34 AM 41.0 °F 35.2 °F 28.4 °F 61% 29.82 in 10.0 mi SSE 9.2 mph - N/A   Clear
7:55 AM 41.0 °F 35.8 °F 28.4 °F 61% 29.83 in 10.0 mi SSE 8.1 mph - N/A   Clear
8:14 AM 41.0 °F 35.2 °F 28.4 °F 61% 29.83 in 10.0 mi SSE 9.2 mph - N/A   Clear
8:35 AM 42.8 °F 37.0 °F 28.4 °F 57% 29.84 in 10.0 mi SSE 10.4 mph - N/A   Clear
8:54 AM 42.8 °F 37.0 °F 28.4 °F 57% 29.84 in 10.0 mi SSE 10.4 mph - N/A   Clear
9:15 AM 42.8 °F 37.0 °F 28.4 °F 57% 29.85 in 10.0 mi SSE 10.4 mph - N/A   Clear
9:35 AM 42.8 °F 37.0 °F 28.4 °F 57% 29.85 in 10.0 mi SSE 10.4 mph - N/A   Clear
9:54 AM 42.8 °F 38.6 °F 28.4 °F 57% 29.86 in 10.0 mi SSE 6.9 mph - N/A   Clear
10:15 AM 42.8 °F 36.6 °F 28.4 °F 57% 29.87 in 10.0 mi SSE 11.5 mph - N/A   Clear
10:34 AM 42.8 °F 36.2 °F 28.4 °F 57% 29.87 in 10.0 mi SSE 12.7 mph 18.4 mph N/A   Clear
10:55 AM 44.6 °F 38.8 °F 28.4 °F 53% 29.87 in 10.0 mi South 11.5 mph 17.3 mph N/A   Clear
11:14 AM 44.6 °F 39.7 °F 28.4 °F 53% 29.87 in 10.0 mi South 9.2 mph 17.3 mph N/A   Scattered Clouds
11:35 AM 44.6 °F 39.7 °F 28.4 °F 53% 29.86 in 10.0 mi SSE 9.2 mph - N/A   Mostly Cloudy
11:54 AM 44.6 °F 39.7 °F 28.4 °F 53% 29.86 in 10.0 mi SSE 9.2 mph - N/A   Overcast
12:15 PM 44.6 °F 38.4 °F 28.4 °F 53% 29.86 in 10.0 mi SSE 12.7 mph - N/A   Overcast
12:34 PM 44.6 °F 39.2 °F 30.2 °F 57% 29.86 in 10.0 mi SSE 10.4 mph - N/A   Overcast
12:55 PM 44.6 °F 39.2 °F 30.2 °F 57% 29.86 in 10.0 mi SSE 10.4 mph - N/A   Overcast
1:15 PM 44.6 °F 39.2 °F 30.2 °F 57% 29.85 in 10.0 mi SSE 10.4 mph - N/A   Overcast
1:34 PM 46.4 °F 41.5 °F 32.0 °F 57% 29.84 in 10.0 mi SSE 10.4 mph - N/A   Overcast
1:55 PM 44.6 °F 39.2 °F 32.0 °F 61% 29.84 in 10.0 mi SSE 10.4 mph - N/A   Scattered Clouds
2:14 PM 44.6 °F 39.7 °F 32.0 °F 61% 29.85 in 10.0 mi SSE 9.2 mph - N/A   Clear
2:35 PM 44.6 °F 39.7 °F 32.0 °F 61% 29.84 in 10.0 mi South 9.2 mph - N/A   Clear
2:54 PM 44.6 °F 39.2 °F 32.0 °F 61% 29.85 in 10.0 mi South 10.4 mph - N/A   Clear
3:15 PM 44.6 °F 39.2 °F 32.0 °F 61% 29.86 in 10.0 mi SE 10.4 mph - N/A   Clear
3:35 PM 44.6 °F 40.2 °F 32.0 °F 61% 29.86 in 10.0 mi SSE 8.1 mph - N/A   Clear
3:55 PM 44.6 °F 40.7 °F 32.0 °F 61% 29.86 in 10.0 mi SSE 6.9 mph - N/A   Clear
4:15 PM 42.8 °F 38.6 °F 30.2 °F 61% 29.87 in 10.0 mi SE 6.9 mph - N/A   Clear
4:34 PM 41.0 °F 37.1 °F 30.2 °F 65% 29.88 in 10.0 mi SE 5.8 mph - N/A   Clear
4:55 PM 39.2 °F 34.2 °F 30.2 °F 70% 29.89 in 10.0 mi SE 6.9 mph - N/A   Clear
5:14 PM 37.4 °F 32.8 °F 30.2 °F 75% 29.90 in 10.0 mi ESE 5.8 mph - N/A   Clear
5:35 PM 37.4 °F 32.1 °F 30.2 °F 75% 29.91 in 10.0 mi SE 6.9 mph - N/A   Clear
5:55 PM 37.4 °F 32.8 °F 30.2 °F 75% 29.92 in 10.0 mi ESE 5.8 mph - N/A   Clear
6:14 PM 35.6 °F 31.7 °F 30.2 °F 81% 29.92 in 10.0 mi ESE 4.6 mph - N/A   Clear
6:35 PM 35.6 °F 30.7 °F 30.2 °F 81% 29.93 in 10.0 mi ESE 5.8 mph - N/A   Clear
6:55 PM 33.8 °F 28.6 °F 30.2 °F 87% 29.94 in 10.0 mi ESE 5.8 mph - N/A   Clear
7:14 PM 33.8 °F 29.6 °F 30.2 °F 87% 29.95 in 10.0 mi ESE 4.6 mph - N/A   Clear
7:35 PM 33.8 °F 28.6 °F 30.2 °F 87% 29.95 in 10.0 mi ESE 5.8 mph - N/A   Clear
7:55 PM 33.8 °F 28.6 °F 30.2 °F 87% 29.95 in 10.0 mi ESE 5.8 mph - N/A   Clear
8:14 PM 33.8 °F 28.6 °F 28.4 °F 81% 29.96 in 10.0 mi ESE 5.8 mph - N/A   Clear
8:35 PM 32.0 °F 27.5 °F 30.2 °F 93% 29.97 in 10.0 mi ESE 4.6 mph - N/A   Clear
8:55 PM 32.0 °F 27.5 °F 30.2 °F 93% 29.97 in 10.0 mi ESE 4.6 mph - N/A   Clear
9:14 PM 32.0 °F 28.7 °F 28.4 °F 87% 29.97 in 7.0 mi ESE 3.5 mph - N/A   Clear
9:35 PM 32.0 °F 28.7 °F 28.4 °F 87% 29.97 in 7.0 mi ESE 3.5 mph - N/A   Clear
9:55 PM 32.0 °F - 28.4 °F 87% 29.98 in 7.0 mi Calm Calm - N/A   Clear
10:14 PM 32.0 °F - 28.4 °F 87% 29.99 in 7.0 mi Calm Calm - N/A   Clear
10:35 PM 30.2 °F - 28.4 °F 93% 30.00 in 7.0 mi Calm Calm - N/A   Clear
10:54 PM 28.4 °F - 26.6 °F 93% 30.00 in 4.0 mi Calm Calm - N/A   Scattered Clouds
11:14 PM 28.4 °F - 26.6 °F 93% 30.01 in 2.0 mi Calm Calm - N/A   Mist
11:35 PM 30.2 °F - 28.4 °F 93% 30.01 in 5.0 mi Calm Calm - N/A   Mostly Cloudy
11:54 PM 32.0 °F - 30.2 °F 93% 30.02 in 5.0 mi Calm Calm - N/A   Overcast